Starlink 32246

operational
NORAD ID: 60432 Int'l Des: 2024-144 Owner: SPXS Country: US Constellation: starlink
LEOCIRCULAR

Über Starlink 32246

Beschreibung wird geladen...

Live-Position

3D-Globus wird geladen...

Nächste Überflüge

Höhenverlauf

Altitude vs Time

uPlot chart will show altitude changes over time

Zweizeiliger Elementsatz

1 60432U 24144H 25349.92653488 .00003509 00000-0 13059-3 0 9996
2 60432 53.1604 246.2749 0001388 95.2448 264.8711 15.30184729 76486
Epoch: 15. Dez. 2025 • Age: 14 hours

Aktueller Status

Höhe 489.7 km
Geschwindigkeit 7.62 km/s
Subsatellitenpunkt -41.43°S, 157.64°W
Startdatum 12. Aug. 2024
Alter 1.3 years
Typ internet

Technische Details

Klassifizierung Payload
Masse 730.00 kg
Trockenmasse 700.00 kg
Gesamtmasse 730.00 kg
Länge 0.30 m
Durchmesser 4.10 m
Spannweite 29.00 m
Form Box + pan
Hersteller SPXS
Bus-Typ Starlink V2M
Phasenstatus In Orbit
Besitzer/Staat SPXS/US

Große Konstellationen

Loading constellations...